Adamsville, PA

7:45 AM EDT on August 25, 2016 (GMT -0400)
Port Meadville

Weather History for KGKJ - February, 2014

Change the Weather History Date:

Wednesday, February 19, 2014

  Actual Average Record
Temperature  
Mean Temperature 38 °F -  
Max Temperature 46 °F 39 °F 59 °F (1949)
Min Temperature 30 °F 18 °F -9 °F (2015)
Degree Days  
Heating Degree Days 27    
Moisture  
Dew Point 28 °F    
Average Humidity 68    
Maximum Humidity 88    
Minimum Humidity 47    
Precipitation  
Precipitation 0.00 in - - ()
Sea Level Pressure  
Sea Level Pressure 29.81 in    
Wind  
Wind Speed 8 mph (SW)    
Max Wind Speed 18 mph    
Max Gust Speed 26 mph    
Visibility 9 miles    
Events Snow    
Averages and records for this station are not official NWS values.
T = Trace of Precipitation, MM = Missing Value Source: NWS Daily Summary

Daily Weather History Graph

Daily Weather History Graph

Search for Another Location

Airport or City:

Trip Planner

Search our weather history database for the weather conditions in past years. The results will help you decide how hot, cold, wet, or windy it might be!

Date:

Astronomy

Feb. 19, 2014 Rise Set
Actual Time 7:10 AM EST 5:59 PM EST
Civil Twilight 6:42 AM EST 6:27 PM EST
Nautical Twilight 6:10 AM EST 6:59 PM EST
Astronomical Twilight 5:37 AM EST 7:32 PM EST
Moon 10:55 PM EST (2/19) 9:11 AM EST (2/19)
Length of Visible Light 11h 45m
Length of Day
10h 48m
Waning Gibbous, 80% of the Moon is Illuminated
Feb 19
Waning Gibbous
Feb 22
Last Quarter
Mar 1
New
Mar 8
First Quarter
Mar 16
Full

Hourly Weather History & Observations

Time (EST) Temp. Windchill Dew Point Humidity Pressure Visibility Wind Dir Wind Speed Gust Speed Precip Events Conditions
12:53 AM 39.9 °F 35.1 °F 21.0 °F 47% 29.81 in 10.0 mi SSE 6.9 mph - N/A   Clear
1:53 AM 39.9 °F 35.1 °F 21.0 °F 47% 29.79 in 10.0 mi South 6.9 mph - N/A   Clear
2:53 AM 39.9 °F 35.8 °F 21.0 °F 47% 29.75 in 10.0 mi Variable 5.8 mph - N/A   Partly Cloudy
3:53 AM 39.9 °F 33.9 °F 21.9 °F 49% 29.71 in 10.0 mi South 9.2 mph - N/A   Mostly Cloudy
4:53 AM 41.0 °F 39.0 °F 21.9 °F 47% 29.69 in 10.0 mi Variable 3.5 mph - N/A   Mostly Cloudy
5:53 AM 41.0 °F 36.4 °F 23.0 °F 49% 29.66 in 10.0 mi Variable 6.9 mph - N/A   Clear
6:53 AM 41.0 °F 37.1 °F 26.1 °F 55% 29.67 in 10.0 mi South 5.8 mph - N/A   Scattered Clouds
7:53 AM 39.9 °F 33.9 °F 28.9 °F 65% 29.67 in 10.0 mi South 9.2 mph - N/A   Partly Cloudy
8:53 AM 41.0 °F 35.8 °F 33.1 °F 73% 29.67 in 10.0 mi South 8.1 mph - N/A   Clear
9:53 AM 43.0 °F 36.8 °F 35.1 °F 74% 29.66 in 10.0 mi SSW 11.5 mph 21.9 mph N/A   Clear
10:53 AM 45.0 °F 40.1 °F 35.1 °F 68% 29.66 in 10.0 mi SSW 9.2 mph 17.3 mph N/A   Partly Cloudy
11:13 AM 46.4 °F 42.9 °F 35.6 °F 66% 29.64 in 10.0 mi SW 6.9 mph - N/A   Mostly Cloudy
11:34 AM 46.4 °F 42.4 °F 33.8 °F 62% 29.64 in 10.0 mi WSW 8.1 mph 16.1 mph N/A   Scattered Clouds
11:53 AM 46.9 °F - 34.0 °F 61% 29.66 in 10.0 mi WSW 10.4 mph 16.1 mph N/A   Partly Cloudy
12:35 PM 44.6 °F 39.2 °F 33.8 °F 66% 29.65 in 10.0 mi West 10.4 mph 20.7 mph N/A   Overcast
12:43 PM 44.6 °F 38.1 °F 33.8 °F 66% 29.66 in 10.0 mi West 13.8 mph 18.4 mph N/A   Overcast
12:53 PM 44.1 °F 37.4 °F 32.0 °F 63% 29.68 in 10.0 mi West 13.8 mph 21.9 mph N/A   Overcast
1:53 PM 39.9 °F 32.5 °F 28.9 °F 65% 29.73 in 10.0 mi West 12.7 mph 19.6 mph N/A   Overcast
2:22 PM 39.2 °F 29.8 °F 28.4 °F 65% 29.74 in 10.0 mi West 18.4 mph 26.5 mph N/A   Mostly Cloudy
2:53 PM 37.0 °F 28.5 °F 28.0 °F 70% 29.80 in 10.0 mi West 13.8 mph 21.9 mph N/A   Overcast
3:53 PM 35.1 °F 25.9 °F 28.0 °F 76% 29.87 in 5.0 mi West 13.8 mph 23.0 mph 0.00 in Snow Light Snow
4:15 PM 33.8 °F 25.3 °F 28.4 °F 81% 29.87 in 8.0 mi West 11.5 mph 23.0 mph 0.00 in   Overcast
4:53 PM 34.0 °F 25.0 °F 28.9 °F 82% 29.94 in 8.0 mi West 12.7 mph - 0.00 in   Overcast
5:53 PM 34.0 °F 28.0 °F 28.9 °F 82% 29.98 in 8.0 mi West 6.9 mph - N/A   Mostly Cloudy
6:09 PM 33.8 °F 25.8 °F 28.4 °F 81% 29.97 in 7.0 mi WSW 10.4 mph - N/A   Scattered Clouds
6:53 PM 32.0 °F 27.5 °F 28.0 °F 85% 30.04 in 7.0 mi SW 4.6 mph - N/A   Clear
7:53 PM 32.0 °F 27.5 °F 28.0 °F 85% 30.08 in 7.0 mi SW 4.6 mph - N/A   Clear
8:53 PM 30.9 °F 25.2 °F 27.0 °F 85% 30.10 in 6.0 mi SSW 5.8 mph - N/A   Clear
9:53 PM 30.9 °F 24.3 °F 27.0 °F 85% 30.11 in 6.0 mi South 6.9 mph - N/A   Clear
10:53 PM 30.0 °F 24.1 °F 27.0 °F 88% 30.11 in 7.0 mi South 5.8 mph - N/A   Clear
11:53 PM 30.0 °F 25.2 °F 27.0 °F 88% 30.10 in 5.0 mi South 4.6 mph - N/A   Clear